When you browse on this site, cookies collect data to enhance your experience and personalize the content and advertising you see.
Visit our Privacy Policy to learn more. By continuing to use the site, you agree to this use of cookies and data.
  • In Hungary
  • List of Countries
  • For 7 days
  • Water Temperature
  • Satellite Maps
  • Weather Map
  • News
  • Weather Widgets
  • user-avatar
    Login

    Hourly Weather Pyrgos

    Today, 13 December, Thursday

    Time Temperature Precipitation Wind Pressure Humidity
    00:00 +8°C° 0.1 mm 3 mps 764 mmHg 69%
    01:00 +8°C° 0 mm 3 mps 764 mmHg 69%
    02:00 +7°C° 0.6 mm 4 mps 763 mmHg 71%
    03:00 +7°C° 0.6 mm 4 mps 763 mmHg 74%
    04:00 +7°C° 0.6 mm 5 mps 762 mmHg 76%
    05:00 +7°C° 1.7 mm 5 mps 762 mmHg 80%
    06:00 +7°C° 1.7 mm 5 mps 762 mmHg 84%
    07:00 +6°C° 1.7 mm 4 mps 761 mmHg 88%
    08:00 +7°C° 1.2 mm 4 mps 761 mmHg 88%
    09:00 +7°C° 1.2 mm 4 mps 761 mmHg 88%
    10:00 +9°C° 1.2 mm 3 mps 761 mmHg 88%
    11:00 +10°C° 0.5 mm 3 mps 761 mmHg 89%
    12:00 +11°C° 0.5 mm 3 mps 761 mmHg 89%
    13:00 +13°C° 0 mm 2 mps 761 mmHg 86%
    14:00 +13°C° 0.2 mm 2 mps 761 mmHg 88%
    15:00 +13°C° 0.2 mm 2 mps 761 mmHg 90%
    16:00 +12°C° 0.2 mm 2 mps 761 mmHg 92%
    17:00 +12°C° 0.7 mm 2 mps 761 mmHg 93%
    18:00 +11°C° 0.7 mm 3 mps 761 mmHg 94%
    19:00 +11°C° 0.7 mm 3 mps 761 mmHg 95%
    20:00 +11°C° 0.7 mm 3 mps 761 mmHg 95%
    21:00 +11°C° 0.7 mm 3 mps 761 mmHg 95%
    22:00 +11°C° 0.7 mm 3 mps 761 mmHg 95%
    23:00 +11°C° 0.5 mm 3 mps 761 mmHg 95%

    Tomorrow, 14 December, Friday

    Time Temperature Precipitation Wind Pressure Humidity
    00:00 +11°C° 0.5 mm 3 mps 761 mmHg 96%
    01:00 +12°C° 0.5 mm 3 mps 761 mmHg 96%
    02:00 +12°C° 0.6 mm 3 mps 761 mmHg 96%
    03:00 +12°C° 0.6 mm 3 mps 761 mmHg 95%
    04:00 +12°C° 0.6 mm 3 mps 761 mmHg 95%
    05:00 +12°C° 0.4 mm 3 mps 761 mmHg 95%
    06:00 +12°C° 0.4 mm 3 mps 761 mmHg 95%
    07:00 +11°C° 0.4 mm 4 mps 761 mmHg 94%
    08:00 +13°C° 0.1 mm 4 mps 761 mmHg 90%
    09:00 +14°C° 0.1 mm 4 mps 762 mmHg 86%
    10:00 +17°C° 0.1 mm 4 mps 762 mmHg 82%
    11:00 +16°C° 0.1 mm 5 mps 761 mmHg 78%
    12:00 +17°C° 0.1 mm 5 mps 761 mmHg 75%
    13:00 +19°C° 0.1 mm 5 mps 761 mmHg 72%
    14:00 +16°C° 0 mm 5 mps 761 mmHg 75%
    15:00 +15°C° 0 mm 5 mps 760 mmHg 79%
    16:00 +14°C° 0 mm 5 mps 760 mmHg 82%
    17:00 +14°C° 0 mm 5 mps 760 mmHg 82%
    18:00 +13°C° 0 mm 5 mps 760 mmHg 82%
    19:00 +11°C° 0 mm 6 mps 760 mmHg 83%
    20:00 +11°C° 0.1 mm 6 mps 760 mmHg 83%
    21:00 +11°C° 0.1 mm 6 mps 760 mmHg 83%
    22:00 +11°C° 0.1 mm 6 mps 760 mmHg 83%
    23:00 +11°C° 0.1 mm 6 mps 760 mmHg 83%

    Day after tomorrow, 15 December, Saturday

    Time Temperature Precipitation Wind Pressure Humidity
    00:00 +11°C° 0.1 mm 6 mps 760 mmHg 83%
    01:00 +11°C° 0.1 mm 6 mps 760 mmHg 83%
    02:00 +11°C° 0.2 mm 6 mps 760 mmHg 82%
    03:00 +11°C° 0.2 mm 6 mps 759 mmHg 82%
    04:00 +11°C° 0.2 mm 6 mps 759 mmHg 81%
    05:00 +11°C° 0.2 mm 6 mps 759 mmHg 81%
    06:00 +11°C° 0.2 mm 6 mps 759 mmHg 80%
    07:00 +11°C° 0.2 mm 6 mps 759 mmHg 79%
    08:00 +13°C° 0.1 mm 6 mps 759 mmHg 77%
    09:00 +14°C° 0.1 mm 6 mps 759 mmHg 74%
    10:00 +15°C° 0.1 mm 6 mps 759 mmHg 72%
    11:00 +16°C° 0.1 mm 6 mps 758 mmHg 70%
    12:00 +16°C° 0.1 mm 6 mps 758 mmHg 68%
    13:00 +17°C° 0.1 mm 6 mps 757 mmHg 67%
    14:00 +16°C° 0.1 mm 6 mps 757 mmHg 71%
    15:00 +15°C° 0.1 mm 5 mps 757 mmHg 75%
    16:00 +14°C° 0.1 mm 5 mps 757 mmHg 79%
    17:00 +13°C° 0.1 mm 5 mps 757 mmHg 81%
    18:00 +13°C° 0.1 mm 5 mps 757 mmHg 83%
    19:00 +12°C° 0.1 mm 5 mps 757 mmHg 84%
    20:00 +12°C° 0.1 mm 5 mps 757 mmHg 85%
    21:00 +12°C° 0.1 mm 4 mps 756 mmHg 86%
    22:00 +12°C° 0.1 mm 4 mps 756 mmHg 87%
    23:00 +12°C° 0.3 mm 4 mps 756 mmHg 87%

    16 December, Sunday

    Time Temperature Precipitation Wind Pressure Humidity
    00:00 +12°C° 0.3 mm 3 mps 756 mmHg 88%
    01:00 +11°C° 0.3 mm 3 mps 756 mmHg 89%
    02:00 +11°C° 0.1 mm 3 mps 756 mmHg 88%
    03:00 +11°C° 0.1 mm 3 mps 755 mmHg 88%
    04:00 +12°C° 0.1 mm 2 mps 755 mmHg 88%
    05:00 +11°C° 0 mm 3 mps 756 mmHg 88%
    06:00 +11°C° 0 mm 3 mps 756 mmHg 87%
    07:00 +11°C° 0 mm 3 mps 756 mmHg 87%
    08:00 +12°C° 0 mm 4 mps 757 mmHg 81%
    09:00 +14°C° 0 mm 4 mps 757 mmHg 76%
    10:00 +15°C° 0 mm 5 mps 757 mmHg 70%
    11:00 +15°C° 0.1 mm 6 mps 757 mmHg 71%
    12:00 +15°C° 0.1 mm 7 mps 757 mmHg 73%
    13:00 +15°C° 0.1 mm 8 mps 757 mmHg 75%
    14:00 +13°C° 0.2 mm 8 mps 757 mmHg 79%
    15:00 +12°C° 0.2 mm 8 mps 757 mmHg 83%
    16:00 +11°C° 0.2 mm 8 mps 758 mmHg 88%
    17:00 +11°C° 0.1 mm 7 mps 758 mmHg 88%
    18:00 +10°C° 0.1 mm 7 mps 759 mmHg 88%
    19:00 +10°C° 0.1 mm 7 mps 759 mmHg 87%
    20:00 +10°C° 0 mm 6 mps 760 mmHg 88%
    21:00 +10°C° 0 mm 6 mps 760 mmHg 88%
    22:00 +10°C° 0 mm 6 mps 761 mmHg 89%
    23:00 +9°C° 0 mm 5 mps 761 mmHg 90%

    17 December, Monday

    Time Temperature Precipitation Wind Pressure Humidity
    00:00 +9°C° 0 mm 5 mps 761 mmHg 91%
    01:00 +10°C° 0 mm 4 mps 761 mmHg 92%
    02:00 +8°C° 0 mm 4 mps 762 mmHg 92%
    03:00 +9°C° 0 mm 3 mps 762 mmHg 92%
    04:00 +9°C° 0 mm 3 mps 762 mmHg 92%
    05:00 +9°C° 0 mm 3 mps 762 mmHg 92%
    06:00 +9°C° 0 mm 3 mps 762 mmHg 91%
    07:00 +9°C° 0 mm 3 mps 763 mmHg 90%
    08:00 +11°C° 0 mm 3 mps 763 mmHg 85%
    09:00 +12°C° 0 mm 3 mps 763 mmHg 80%
    10:00 +14°C° 0 mm 3 mps 764 mmHg 74%
    11:00 +14°C° 0 mm 3 mps 763 mmHg 73%
    12:00 +16°C° 0 mm 3 mps 763 mmHg 72%
    13:00 +16°C° 0 mm 3 mps 763 mmHg 70%
    14:00 +14°C° 0 mm 3 mps 763 mmHg 75%
    15:00 +13°C° 0 mm 3 mps 763 mmHg 80%
    16:00 +12°C° 0 mm 3 mps 763 mmHg 85%
    17:00 +12°C° 0 mm 3 mps 763 mmHg 87%
    18:00 +12°C° 0 mm 2 mps 764 mmHg 89%
    19:00 +12°C° 0 mm 2 mps 764 mmHg 91%
    20:00 +11°C° 0 mm 1 mps 764 mmHg 92%
    21:00 +11°C° 0 mm 1 mps 764 mmHg 92%
    22:00 +11°C° 0 mm 1 mps 764 mmHg 92%
    23:00 +11°C° 0 mm 1 mps 764 mmHg 91%

    18 December, Tuesday

    Time Temperature Precipitation Wind Pressure Humidity
    00:00 +10°C° 0 mm 2 mps 764 mmHg 90%
    01:00 +9°C° 0 mm 2 mps 763 mmHg 89%
    02:00 +10°C° 0.1 mm 2 mps 763 mmHg 85%
    03:00 +10°C° 0.1 mm 3 mps 762 mmHg 81%
    04:00 +10°C° 0.1 mm 3 mps 762 mmHg 77%
    05:00 +10°C° 0.9 mm 3 mps 762 mmHg 79%
    06:00 +10°C° 0.9 mm 3 mps 762 mmHg 81%
    07:00 +10°C° 0.9 mm 3 mps 761 mmHg 83%
    08:00 +11°C° 1.2 mm 3 mps 761 mmHg 85%
    09:00 +11°C° 1.2 mm 3 mps 761 mmHg 86%
    10:00 +12°C° 1.2 mm 3 mps 761 mmHg 88%
    11:00 +12°C° 1.4 mm 3 mps 760 mmHg 88%
    12:00 +12°C° 1.4 mm 3 mps 760 mmHg 88%
    13:00 +13°C° 1.4 mm 4 mps 759 mmHg 88%
    14:00 +12°C° 0.8 mm 3 mps 759 mmHg 89%
    15:00 +12°C° 0.8 mm 3 mps 759 mmHg 91%
    16:00 +12°C° 0.8 mm 2 mps 759 mmHg 92%
    17:00 +11°C° 0.3 mm 3 mps 759 mmHg 92%
    18:00 +11°C° 0.3 mm 4 mps 759 mmHg 91%
    19:00 +10°C° 0.3 mm 4 mps 759 mmHg 91%
    20:00 +9°C° 0.1 mm 5 mps 760 mmHg 90%
    21:00 +9°C° 0.1 mm 6 mps 760 mmHg 89%
    22:00 +9°C° 0.1 mm 7 mps 761 mmHg 88%
    23:00 +8°C° 0.1 mm 7 mps 761 mmHg 87%
    Show more